Regional Weather Roundup
Issued by NWS Cleveland, OH

Home | Current Version | Previous Version | Graphics & Text | Print | Product List | Glossary On
Versions: 1 2 3 4 5 6 7 8 9 10 11 12 13 14 15 16 17 18 19 20 21 22 23 24 25 26 27 28 29 30 31 32 33 34 35 36 37 38 39 40 41 42 43 44 45 46 47 48 49 50
000
ASUS41 KCLE 230310
RWRCLE
OHIO REGIONAL WEATHER ROUNDUP
NATIONAL WEATHER SERVICE CLEVELAND, OH
1100 PM EDT MON MAY 22 2017

NOTE: "FAIR" INDICATES FEW OR NO CLOUDS BELOW 12,000 FEET WITH NO
SIGNIFICANT WEATHER AND/OR OBSTRUCTIONS TO VISIBILITY.

OHZ001>008-015>018-024>027-034-035-043-044-230400-
   NORTHWEST OHIO

CITY           SKY/WX    TMP DP  RH WIND       PRES   REMARKS
DEFIANCE       PTCLDY    57  47  69 CALM      29.97F
FINDLAY        CLEAR     60  47  61 S6        29.98F
TOLEDO EXPRESS PTCLDY    55  49  80 CALM      29.97F
TOLEDO EXEC    PTCLDY    61  49  64 SW3       29.98F
LIMA           CLOUDY    58  49  72 S7        29.99F
$$

OHZ009>014-019>023-028>033-038-089-230400-
   NORTHEAST OHIO

CITY           SKY/WX    TMP DP  RH WIND       PRES   REMARKS
CLE-HOPKINS    PTCLDY    61  48  62 S8        30.02F
CLE-LAKEFRONT  CLEAR     62  46  55 S9        29.99F
CUY CO. ARPT   PTCLDY    59  48  67 S5        30.02F
LORAIN-ELYRIA  PTCLDY    57  45  64 S3        30.00F
ASHTABULA      CLEAR     51  47  86 S6        30.03R
AKRON-CANTON   PTCLDY    57  46  66 S3        30.04S
WOOSTER        CLEAR     54  49  83 CALM      30.03F
MANSFIELD      PTCLDY    55  48  77 SE5       30.02F
YOUNGSTOWN     PTCLDY    55  45  68 S6        30.05S
$$

OHZ042-051>053-060>062-070>072-077>081-230400-
  SOUTHWEST OHIO

CITY           SKY/WX    TMP DP  RH WIND       PRES   REMARKS
CINC-COVINGTON CLOUDY    59  46  62 CALM      30.02S
CINC-LUNKEN    CLOUDY    55  52  89 CALM      30.03S
HAMILTON       CLOUDY    55  53  93 CALM      30.03S
DAYTON         CLOUDY    60  46  59 S6        30.03R
WRIGHT-PAT AFB CLOUDY    58  48  69 SE3       30.02R
DAYTON GENERAL CLOUDY    58  47  66 S3        30.02S
WILMINGTON     CLOUDY    57  48  72 SE3       30.02F
$$

OHZ036-037-039>041-045>050-054>059-063>069-073>076-082>088-230400-
  CENTRAL AND SOUTHEAST OHIO

CITY           SKY/WX    TMP DP  RH WIND       PRES   REMARKS
COLUMBUS       CLOUDY    59  47  64 SE3       30.03R
OSU AIRPORT    PTCLDY    60  47  61 S6        30.03R
BOLTON FIELD   CLOUDY    57  49  72 CALM      30.04R
RICKENBACK AFB CLOUDY    56  48  74 SE5       30.03S
NEWARK         CLEAR     52  50  93 CALM      30.03S
MARION         CLEAR     55  47  74 S7        30.01F
LANCASTER      CLOUDY    54  48  80 CALM      30.04S
ZANESVILLE     CLEAR     55  50  83 CALM      30.04F
NEW PHILLY     NOT AVBL
$$




USA.gov is the U.S. government's official web portal to all federal, state and local government web resources and services.